Home   Weather   Shymkent   Past weeks

Flag for Kazakhstan Past Weather in Shymkent, Kazakhstan — Yesterday and Last 2 Weeks

Now
34 °F

Fog.


Feels Like: 34 °F
Forecast: 35 / 39 °F
Wind: No wind

Location: Shymkent Airport

Current Time: Jan 21, 2017 at 12:21:40 am

Latest Report: Jan 21, 2017 at 12:00 am


Visibility: 1 mi

Pressure: 30.18 "Hg (28.34 "Hg at 506m altitude)

Humidity: 87%

Dew Point: 30 °F

Location of ShymkentLocation

Past Weather in Shymkent — Graph

°F

Shymkent Temperature Yesterday

Maximum temperature yesterday: 54 °F (at 2:00 pm)
Minimum temperature yesterday: 25 °F (at 3:30 am)
Average temperature yesterday: 38 °F

High & Low Weather Summary for the Past Weeks

 TemperatureHumidityPressure
High54 °F (Jan 20, 2:00 pm)100% (Jan 5, 11:00 pm)30.39 "Hg (Jan 5, 11:00 pm)
Low18 °F (Jan 14, 8:30 am)32% (Jan 11, 12:30 pm)30.12 "Hg (Jan 11, 12:00 am)
Average30 °F82%30.27 "Hg
* Reported Jan 5 11:00 pm — Jan 20 11:00 pm, Shymkent, Weather by CustomWeather, © 2017

Note: Actual official high and low records may vary slightly from our data, if they occured in-between our weather recording intervals... More about our weather records

Advertising

Shymkent Weather History for the Previous 24 Hours

Scroll right to see more
 ConditionsComfort  
Time TempWeatherWind HumidityBarometerVisibility
11:00 pm
Fri, Jan 20
34 °FFog.No wind93%30.15 "Hg1 mi
10:30 pm36 °FFog.1 mph87%30.15 "Hg1 mi
10:00 pm36 °FFog.3 mph100%30.15 "Hg1 mi
9:30 pm36 °FFog.No wind87%30.15 "Hg1 mi
9:00 pm37 °FFog.No wind87%30.15 "Hg1 mi
8:30 pm37 °FFog.No wind81%30.15 "Hg1 mi
8:00 pm37 °FFog.3 mph87%30.15 "Hg1 mi
7:30 pm39 °FFog.1 mph81%30.15 "Hg1 mi
7:00 pm39 °FPassing clouds.1 mph81%30.15 "Hg2 mi
6:30 pm43 °FClear.3 mph61%30.15 "Hg10 mi
6:00 pm45 °FSunny.No wind57%30.15 "Hg10 mi
5:30 pm48 °FSunny.3 mph58%30.18 "Hg10 mi
5:00 pm52 °FPassing clouds.3 mph44%30.18 "HgN/A
4:30 pm54 °FSunny.6 mph38%30.18 "Hg10 mi
4:00 pm54 °FSunny.6 mph38%30.18 "Hg10 mi
3:30 pm54 °FSunny.8 mph41%30.21 "Hg10 mi
3:00 pm54 °FSunny.6 mph38%30.21 "Hg10 mi
2:30 pm54 °FSunny.6 mph38%30.21 "Hg10 mi
2:00 pm54 °FPassing clouds.3 mph41%30.24 "HgN/A
1:30 pm52 °FPassing clouds.3 mph44%30.27 "HgN/A
1:00 pm50 °FSunny.1 mph47%30.27 "Hg10 mi
12:30 pm46 °FSunny.3 mph53%30.30 "Hg10 mi
12:00 pm46 °FSunny.3 mph53%30.30 "Hg10 mi
11:30 am45 °FSunny.3 mph61%30.30 "Hg10 mi
11:00 am41 °FMore clouds than sun.1 mph66%30.30 "Hg4 mi
10:30 am36 °FMore clouds than sun.3 mph81%30.30 "Hg4 mi
10:00 am34 °FMore clouds than sun.3 mph81%30.30 "Hg4 mi
9:30 am32 °FMore clouds than sun.No wind87%30.30 "Hg4 mi
9:00 am32 °FMore clouds than sun.1 mph80%30.30 "Hg4 mi
8:30 am32 °FClear.1 mph80%30.30 "Hg10 mi
8:00 am32 °FMostly cloudy.6 mph75%30.27 "Hg4 mi
7:30 am30 °FMostly cloudy.6 mph80%30.27 "Hg4 mi
7:00 am30 °FMostly cloudy.1 mph80%30.27 "Hg4 mi
6:30 am30 °FClear.3 mph80%30.27 "Hg4 mi
6:00 am28 °FIce fog.3 mph80%30.27 "Hg2 mi
5:30 am28 °FIce fog.No wind80%30.27 "Hg2 mi
5:00 am28 °FIce fog.3 mph86%30.27 "Hg1 mi
4:30 am25 °FIce fog.1 mph86%30.30 "Hg1 mi
4:00 am27 °FIce fog.3 mph93%30.30 "Hg1 mi
3:30 am25 °FIce fog.3 mph100%30.30 "Hg1 mi
3:00 am28 °FIce fog.3 mph100%30.30 "Hg1 mi
2:30 am28 °FIce fog.3 mph100%30.30 "Hg1 mi
2:00 am27 °FIce fog.1 mph100%30.30 "Hg1 mi
1:30 am28 °FIce fog.3 mph100%30.30 "Hg1 mi
1:00 am27 °FIce fog.3 mph93%30.33 "Hg1 mi
12:30 am28 °FIce fog.1 mph100%30.33 "Hg1 mi
12:00 am28 °FIce fog.No wind100%30.33 "Hg1 mi
Weather by CustomWeather, © 2017

See weather overviewHow to use our weather pages